Location: Cussy
(47.0410°N, 4.6412°E)
Time: 18:31:51
(UTC+00:00)

X-37B - Visible Passes

Search period start: 16 April 2021 00:00
Search period end: 26 April 2021 00:00
Orbit: 380 x 394 km, 45.0° (Epoch: 07 April)

Date Brightness Start Highest point End Pass type
(mag) Time Alt. Az. Time Alt. Az. Time Alt. Az.
16 Apr 2.5 03:35:58 14° SSW 03:37:38 21° SSE 03:40:06 10° ESE visible
17 Apr 3.1 02:40:06 13° SE 02:40:06 13° SE 02:41:12 10° ESE visible
17 Apr 1.4 04:12:35 10° WSW 04:15:36 42° SSE 04:18:38 10° E visible
18 Apr 1.8 03:16:28 26° SSW 03:17:21 30° SSE 03:20:13 10° E visible
19 Apr 3.0 02:20:32 16° ESE 02:20:32 16° ESE 02:21:39 10° ESE visible
19 Apr 0.9 03:52:48 14° WSW 03:55:25 53° S 03:58:31 10° E visible
20 Apr 1.1 02:56:51 41° S 02:57:07 42° SSE 03:00:10 10° E visible
21 Apr 3.1 02:00:54 16° ESE 02:00:54 16° ESE 02:01:44 10° E visible
21 Apr 0.7 03:33:10 19° WSW 03:35:15 60° S 03:38:24 10° E visible
22 Apr 1.0 02:37:13 51° SSE 02:37:13 51° SSE 02:40:04 10° E visible
23 Apr 3.5 01:41:18 13° E 01:41:18 13° E 01:41:42 10° E visible
23 Apr 0.7 03:13:35 27° WSW 03:15:06 60° S 03:18:15 10° ESE visible
24 Apr 1.6 02:17:43 38° ESE 02:17:43 38° ESE 02:19:55 10° E visible
24 Apr 1.1 03:50:10 10° W 03:53:14 41° SSW 03:56:15 10° ESE visible
25 Apr 0.7 02:54:14 42° SW 02:54:56 52° S 02:58:03 10° ESE visible
